DMSP 5D-2 F13 DEB, 40558

Orbit data source: Space-Track

DMSP 5D-2 F13 DEB, 40558 is space debris in LEO originally from a launch on Fri, 24 Mar 1995 UTC launched from the Air Force Western Test Range (AFWTR). Debris objects in space refer to the collection of defunct objects orbiting the Earth. Examples of debris include non-operational satellites, rocket bodies, and fragments generated from explosions, collisions, or faulty payload assembly.

Loading next visibility...
DMSP 5D-2 F13 DEB details
Identifier
40558, 1995-015DR
Orbit
LEO
Last TLE update1 day ago
Origin
Flag of USUSAF SMC (US)
ManufacturerUnknown
MissionSpacecraft
Bus & MotorUnknown
MassUnknown
Launch date (UTC)
1995-03-24 (30 years ago)
Launch vehicleUnknown
Launch site
Air Force Western Test Range (AFWTR)
Object type
Payload
Rocket body
Debris
Shape & HBRUnknown
Radar Cross SectionSmall (<0.1 m²)

Expand to show TLE details & history

TLE from 1 day ago
0 DMSP 5D-2 F13 DEB
1 40558U 95015DR  24340.38146166  .00009619  00000-0  46147-2 0  9999
2 40558  98.9351 315.5764 0044842 227.7827 131.9539 14.18596111497128
Epoch: 2024-12-05T09:09Z
Definitive object data (Epoch: 2024-12-05T09:09:18.287Z)
Latitude
Longitude103.58713°
Altitude854.703 km
Speed7.414 km/s
True Right ascension21h 02m 18s
True Declination0° 00' 00"
Sunlit
Object was in daylight at TLE epoch
Visualization TLE readout
Latitude-47.03272°
Longitude-84.96823°
Altitude815.901 km
Speed7.461 km/s
Apparent Right ascension03h 05m 40s
Apparent Declination-80° 42' 27"
Sunlit
Object is in daylight
Visualization observer readout
Local Sidereal Time09:39:33
Azimuth192.153° SSW
Elevation-40.654°
Doppler factor1
Orbital elements
Apogee altitude859.586 km
Perigee altitude794.965 km
Semi-major axis7,205.413 km
Eccentricity0.0044842
Inclination98.9351°
RAAN315.5764°
Arg. of periapsis227.7827°
True anomaly132.33461°
Mean anomaly131.9539°
Eccentric anomaly132.1444°
Mean motion3.54858 °/min
BSTAR0.0046147
Orbital period101.45 mins
Loading maneuver chart data...

DMSP 5D-2 F13 DEB Visibility forecast

Observer location: undefined°, undefined

Span
Click to sort rows by Start time (UTC) header in descending order
Start Az.
Max El. time (UTC)
Max El. Az.
Max El.
End time (UTC)
End Az.
6 mins2024-12-06 12:49:02.230Z338.384° N2024-12-06 12:52:02.230Z302.867° NW17.988°2024-12-06 12:55:02.230Z263.526° W
9 mins2024-12-06 22:31:02.230Z165.661° S2024-12-06 22:35:02.230Z184.83° SSW44.88°2024-12-06 22:40:02.230Z345.662° N
9 mins2024-12-07 10:50:02.230Z31.545° NE2024-12-07 10:55:02.230Z108.382° ESE31.818°2024-12-07 10:59:02.230Z163.897° S
|